IRIDIUM 104

Last updated on Sun Jun 21 2026 00:03:13 GMT+0000 (Coordinated Universal Time)

1 41922U 17003F 26171.27947075 .00000057 00000+0 13318-4 0 9998 2 41922 86.3963 87.1891 0002401 79.6294 280.5172 14.34217984493715
UTC large
Height (km)
Speed (km/s)
/
Latitude / Longitude
Inclination (degrees)
Orbital Period (minutes)
Azimuth
Elevation
Range (km)
Doppler Factor

Next 0 passes for location: London (51.5072 / 0.1276)

No passes found over London.
IRIDIUM 104